Wind_Speed
8 9 9 11 13 14 15 15 15 16 16 17 17 19 20 20 20 22 22 23 24 25 25 25 26 26 27 28 27 28 27 27 26 25 24 23 23 22 23 22 22 21 20 20 21 21 21 22 21
5 6 7 8 10 12 12 13 14 14 15 14 14 15 17 18 18 19 20 21 22 23 23 24 25 27 28 29 29 29 29 29 28 27 26 25 26 25 24 25 25 25 24 23 23 23 24 25 25
5 4 3 4 5 6 7 8 11 12 12 10 10 11 14 17 17 19 19 20 20 21 22 23 25 27 28 29 30 29 29 29 29 29 29 28 28 28 27 27 27 27 26 25 26 27 27 28 28
6 6 4 2 3 3 4 6 7 8 9 9 8 8 11 13 15 17 18 20 21 22 23 24 25 27 28 29 30 30 31 31 31 31 31 31 30 30 30 30 30 30 29 29 29 30 31 31 32
8 7 6 6 6 5 5 4 3 4 7 10 10 10 10 11 13 15 17 20 22 24 25 26 26 28 29 30 31 32 32 33 33 33 33 33 33 33 32 32 32 32 32 31 31 31 33 34 33
8 8 8 7 7 7 8 8 8 8 9 11 13 14 15 15 16 18 19 22 24 26 27 29 30 31 32 33 35 35 35 36 37 37 37 36 37 37 36 35 35 34 34 33 33 33 33 34 34
6 7 7 7 8 9 11 13 14 14 14 15 16 18 20 21 22 23 24 25 27 30 32 34 35 36 37 38 38 38 39 40 40 40 40 40 40 40 39 39 38 37 37 37 36 36 35 35 35
8 8 8 9 10 11 12 13 14 15 15 17 18 19 22 24 26 27 27 27 28 30 32 33 36 37 38 38 39 39 39 40 39 39 40 41 42 42 42 42 42 40 40 40 40 39 39 38 37
8 8 9 11 12 12 12 12 12 13 15 16 18 20 22 25 27 28 29 30 30 30 31 32 34 36 37 37 38 38 38 39 39 40 40 40 41 42 43 44 44 44 43 43 42 42 42 41 40
9 10 11 11 11 11 12 12 12 12 14 17 19 22 24 26 28 30 32 32 32 33 33 34 36 38 39 41 41 41 41 40 40 41 41 42 42 43 44 45 46 46 45 44 44 44 43 42 42
10 11 12 12 12 12 12 13 14 15 16 18 20 22 24 26 27 28 29 31 32 32 33 34 36 38 40 42 44 46 46 46 46 45 45 45 45 45 45 45 46 46 46 47 46 43 42 42 41
11 11 10 10 11 11 11 12 13 13 15 16 19 22 24 26 28 30 32 34 35 36 37 37 38 39 40 42 43 45 47 49 50 51 50 50 49 49 48 47 47 47 47 46 46 45 43 43 43
7 8 8 8 7 7 7 8 11 14 16 19 23 26 29 32 34 36 37 39 40 42 43 44 45 46 46 47 47 47 47 49 50 52 53 53 53 53 53 52 51 50 49 49 47 47 48 47 46
8 8 7 7 7 7 8 11 15 18 21 24 26 28 30 31 34 36 39 41 43 44 46 48 50 52 54 54 54 55 54 54 54 54 55 56 56 56 56 57 56 54 53 51 51 51 50 52 51
7 6 6 7 9 10 12 15 19 22 25 27 29 30 33 36 39 42 44 47 50 51 52 53 55 56 57 57 58 59 60 60 59 58 59 59 59 59 58 57 57 57 56 55 54 54 53 53 54
7 8 11 13 16 17 18 20 22 25 29 32 34 35 38 40 44 47 50 52 54 56 57 59 61 63 63 63 63 64 65 66 65 62 61 61 62 62 62 60 59 58 57 57 56 56 56 55 55
9 11 13 15 17 19 20 22 23 27 33 38 42 45 48 49 52 56 59 59 58 58 60 62 65 67 68 68 70 70 68 67 67 66 65 64 63 64 64 64 65 65 63 61 59 57 57 57 57
11 12 13 13 16 18 21 25 29 36 41 46 50 53 56 59 62 65 67 65 63 61 62 65 68 70 73 74 74 74 72 70 69 69 69 67 66 66 66 65 65 66 66 65 65 62 60 59 58
15 16 15 16 19 22 26 31 35 41 46 51 54 57 60 64 67 70 72 73 73 72 72 73 75 77 77 77 78 78 79 78 76 75 75 76 76 75 75 73 72 71 70 68 67 67 66 63 61
16 17 18 20 24 28 32 36 41 47 52 57 60 63 66 70 74 76 78 80 84 84 84 84 84 84 81 80 81 82 83 84 84 82 80 80 82 82 82 82 80 78 77 75 72 70 69 68 65
17 19 22 24 28 30 36 42 48 54 59 63 66 68 70 73 79 83 86 88 90 91 90 87 84 84 84 81 79 80 82 83 85 87 87 86 85 85 86 88 87 84 81 79 77 75 74 72 69
19 22 24 27 30 35 41 50 54 59 63 66 69 72 76 81 84 86 89 89 88 87 83 79 76 73 71 69 68 69 71 74 78 81 83 87 87 87 88 89 90 91 86 82 81 80 78 77 73
22 24 27 30 34 40 47 55 59 63 66 69 73 76 80 83 85 87 86 83 79 74 69 65 63 59 59 60 62 62 60 58 59 61 65 70 73 75 77 82 84 86 85 84 85 86 84 82 80
25 29 32 34 38 42 50 58 62 65 69 73 76 78 79 81 83 81 77 71 63 62 61 58 54 54 55 54 54 51 43 39 36 35 37 43 47 48 51 56 61 66 70 75 79 82 84 84 83
27 31 34 37 39 45 54 60 64 68 71 75 77 78 79 80 77 71 65 56 56 54 51 50 50 50 49 47 45 42 39 35 30 26 26 28 31 32 34 36 38 41 47 55 63 71 79 83 84
31 34 36 39 43 50 57 62 66 70 73 75 76 76 75 71 65 62 57 56 52 48 51 51 50 48 47 45 44 42 39 35 28 23 21 23 24 25 27 30 32 33 36 41 47 55 64 72 78
34 36 39 44 50 56 61 64 69 72 75 75 75 73 67 61 59 59 57 53 46 45 50 53 51 49 48 46 44 42 40 35 30 25 23 23 24 22 24 28 31 33 35 37 40 45 51 57 63
35 39 45 50 56 61 64 67 72 74 74 74 73 69 60 56 57 58 56 49 44 46 51 54 54 51 49 46 44 42 39 35 31 27 24 24 23 24 25 27 30 32 35 39 41 41 45 51 54
37 42 47 53 59 64 68 69 72 74 74 74 72 64 55 53 55 57 57 54 50 51 54 56 56 53 51 48 46 43 40 37 34 30 27 26 27 28 30 31 32 33 36 38 39 37 39 47 54
39 44 50 57 61 63 67 70 73 74 73 75 70 60 54 53 56 58 60 59 56 56 57 57 56 54 52 52 51 48 45 42 39 37 34 33 32 33 34 36 36 36 38 38 38 39 42 43 45
Wind_Direction
284 286 286 275 260 250 242 237 234 234 235 240 246 250 253 258 257 257 251 248 247 248 250 254 257 259 260 263 267 271 273 274 275 276 277 278 278 276 273 267 261 256 253 251 250 250 252 252 252
319 306 295 281 266 260 252 246 243 247 252 254 257 261 264 268 267 263 259 256 256 258 260 261 264 265 266 267 268 270 271 273 274 276 277 277 277 274 270 263 259 254 250 249 252 254 255 255 253
7 352 315 299 298 286 271 264 264 266 266 265 264 263 261 263 267 268 266 264 263 264 266 266 265 265 265 266 267 269 271 272 274 275 275 275 273 271 268 262 257 254 250 249 251 253 256 256 254
20 22 19 55 55 20 337 317 308 295 289 278 264 255 262 273 282 285 286 282 278 275 271 270 270 271 271 271 272 272 272 272 272 272 271 270 269 267 265 261 258 256 254 252 252 252 253 253 253
17 17 25 45 39 20 12 348 316 277 285 290 288 281 278 278 280 283 282 283 282 282 279 277 276 276 275 275 274 274 274 273 273 272 271 270 268 266 264 262 260 260 258 256 254 252 252 251 252
17 13 13 19 7 349 339 331 323 313 311 308 307 304 298 293 287 282 280 279 281 282 280 278 277 276 275 275 275 275 275 274 273 273 271 269 266 264 262 261 260 259 259 258 256 254 251 249 249
3 354 351 346 342 331 328 329 327 325 318 309 303 299 295 291 287 283 280 280 279 279 279 279 279 279 278 275 273 273 273 272 271 270 268 267 265 263 262 260 259 258 257 256 255 254 254 252 249
0 346 340 338 338 331 331 326 321 316 308 304 299 296 294 294 294 294 293 292 289 287 286 285 285 284 281 280 278 276 273 271 270 269 267 265 263 261 260 260 259 257 256 254 253 252 251 251 250
14 1 1 0 357 348 344 338 328 319 311 306 302 299 299 300 301 302 303 302 300 297 294 291 289 288 286 283 280 277 274 272 270 267 266 265 263 262 260 259 259 259 257 255 253 251 250 249 247
24 14 10 10 4 354 341 337 330 318 309 303 302 303 303 304 305 306 306 306 304 301 296 291 287 284 284 283 281 279 276 272 270 268 266 265 263 262 261 260 260 261 260 257 252 248 247 246 247
7 3 360 358 355 346 338 337 336 331 327 321 317 313 308 305 304 304 305 305 303 301 298 293 289 285 282 280 279 279 278 276 274 271 268 267 266 264 263 262 261 261 260 257 254 249 246 244 243
354 356 353 349 352 353 353 348 339 333 327 324 317 312 308 306 304 303 302 301 299 297 294 291 288 285 283 281 278 277 276 275 274 273 271 268 266 265 265 264 263 262 260 259 255 251 247 245 242
355 359 356 6 15 14 358 342 329 322 321 319 316 313 312 311 308 306 306 305 303 300 296 292 287 283 280 278 276 273 271 271 271 271 270 268 267 265 264 263 262 261 259 257 255 254 252 249 246
19 20 15 10 5 357 340 330 323 322 320 316 314 312 309 305 303 302 301 300 298 295 293 291 288 285 283 280 277 274 270 268 266 265 265 265 264 263 262 261 260 260 259 258 256 254 253 253 251
21 8 0 353 350 347 337 326 323 325 321 319 318 317 315 312 309 305 303 301 298 294 291 288 285 282 280 278 276 275 274 272 269 265 263 262 261 261 259 257 256 255 255 255 256 257 254 251 250
4 351 352 352 349 343 335 327 329 332 329 325 322 318 314 310 306 303 300 297 294 291 288 285 285 285 283 280 278 276 274 273 271 268 265 262 260 259 258 257 255 254 254 253 252 253 254 253 251
356 350 350 347 339 335 334 334 335 333 330 328 325 321 317 313 309 306 303 300 294 288 284 282 283 282 280 279 279 278 276 271 268 265 264 263 262 260 259 257 257 256 255 254 252 250 250 251 250
348 342 339 336 330 329 329 335 339 334 330 325 322 317 313 311 308 306 305 303 299 293 287 283 282 281 279 278 277 277 276 273 269 266 264 262 262 262 261 259 257 256 255 254 253 250 249 249 248
336 332 332 331 331 333 333 334 333 327 322 318 314 311 309 308 306 305 305 304 302 300 297 293 289 284 279 275 271 269 267 267 267 267 265 263 263 264 264 263 260 257 255 254 253 252 250 249 249
329 327 327 330 332 332 329 327 325 322 318 316 315 313 311 308 306 306 306 305 304 302 299 294 289 285 280 275 270 266 261 258 258 259 261 263 264 263 263 261 259 257 255 253 253 254 253 251 250
341 335 331 329 329 330 326 323 322 321 320 318 316 312 309 308 307 309 309 307 303 300 298 297 297 297 297 295 289 281 272 263 259 259 259 258 257 258 260 260 258 256 255 255 254 256 256 254 251
337 332 327 324 324 324 324 321 321 322 319 317 315 314 314 314 314 314 310 306 304 303 304 306 308 310 310 308 305 301 293 281 271 265 262 261 261 260 260 260 259 258 258 257 255 256 258 256 254
330 328 325 321 320 320 321 322 323 321 319 317 317 317 317 318 318 315 312 310 310 312 315 316 315 316 316 314 311 307 301 293 283 274 268 264 264 264 263 262 260 259 258 256 254 254 254 254 254
331 328 324 320 317 320 322 322 322 321 320 319 319 319 321 323 320 318 316 315 318 320 322 322 319 317 319 319 317 317 314 305 291 273 266 265 265 264 263 261 260 260 260 259 257 254 253 252 252
327 325 321 321 323 324 322 322 323 324 322 321 321 323 326 325 323 322 320 320 323 325 325 326 325 326 327 328 329 328 326 321 305 283 268 262 259 257 255 255 257 258 257 257 257 255 253 251 249
323 324 326 328 325 322 323 325 326 324 324 324 324 327 328 326 326 325 324 321 323 326 330 332 331 332 333 333 333 331 328 324 317 302 286 272 263 259 260 261 264 267 267 265 262 257 253 251 248
325 326 327 329 326 325 326 327 326 325 325 326 328 329 328 328 329 330 326 321 320 325 330 333 334 334 335 334 333 332 331 327 322 309 296 285 276 269 271 270 265 265 269 271 272 268 260 255 251
326 329 332 332 329 327 326 327 327 326 329 330 330 329 328 330 333 333 329 322 315 318 324 328 330 330 329 329 328 327 328 327 324 313 296 286 281 276 280 281 280 274 272 274 278 274 262 258 254
331 333 334 331 328 328 326 328 327 328 331 331 330 329 329 332 334 333 331 327 321 318 321 322 322 322 321 320 320 318 316 315 314 311 302 291 284 280 279 279 281 277 275 278 280 276 274 269 259
334 334 334 332 330 328 326 328 328 331 331 331 330 328 328 332 333 333 333 330 326 322 321 320 320 319 317 315 313 311 308 305 302 298 295 291 288 285 282 280 280 278 278 280 278 275 283 281 266
Height
5842 5843 5843 5844 5845 5845 5844 5845 5845 5846 5847 5847 5848 5849 5849 5851 5853 5856 5854 5853 5853 5853 5853 5853 5853 5852 5852 5851 5851 5850 5850 5850 5849 5849 5848 5848 5848 5849 5849 5849 5850 5850 5851 5852 5852 5852 5853 5854 5855
5841 5842 5843 5844 5844 5844 5845 5844 5844 5845 5846 5847 5847 5848 5848 5848 5849 5850 5850 5849 5849 5849 5850 5850 5850 5849 5848 5847 5847 5846 5845 5844 5844 5844 5844 5843 5843 5844 5844 5844 5845 5845 5846 5847 5847 5848 5849 5850 5851
5841 5842 5843 5843 5843 5844 5844 5844 5844 5845 5845 5846 5847 5847 5846 5845 5846 5847 5847 5847 5846 5846 5846 5846 5845 5844 5844 5843 5842 5841 5841 5840 5839 5839 5839 5839 5838 5838 5838 5839 5839 5840 5840 5841 5842 5843 5844 5845 5846
5843 5844 5844 5844 5843 5844 5843 5844 5845 5845 5844 5844 5845 5845 5845 5846 5846 5846 5846 5845 5844 5843 5842 5841 5840 5840 5839 5839 5838 5837 5836 5835 5834 5834 5833 5832 5832 5833 5832 5832 5832 5833 5834 5834 5835 5836 5837 5838 5839
5845 5845 5845 5843 5843 5843 5843 5844 5844 5844 5844 5844 5844 5844 5845 5845 5844 5844 5843 5842 5841 5840 5839 5838 5837 5835 5834 5833 5832 5831 5830 5829 5828 5827 5827 5825 5825 5826 5825 5825 5825 5826 5826 5827 5828 5829 5830 5831 5832
5846 5845 5845 5844 5844 5844 5844 5844 5845 5845 5844 5844 5843 5842 5841 5842 5841 5841 5840 5839 5836 5834 5833 5832 5830 5828 5827 5826 5825 5824 5822 5821 5820 5820 5819 5818 5818 5818 5818 5818 5818 5818 5819 5820 5821 5821 5823 5824 5825
5847 5846 5844 5844 5844 5844 5844 5844 5843 5843 5843 5843 5841 5839 5837 5837 5836 5835 5834 5833 5831 5829 5827 5825 5823 5821 5819 5818 5816 5815 5813 5812 5811 5810 5809 5809 5810 5810 5809 5810 5810 5810 5811 5812 5813 5813 5814 5816 5817
5845 5845 5844 5844 5844 5844 5844 5843 5842 5841 5840 5839 5837 5835 5833 5831 5830 5829 5828 5827 5826 5823 5821 5818 5815 5813 5811 5809 5808 5806 5805 5803 5801 5800 5800 5799 5799 5799 5800 5800 5801 5802 5802 5803 5803 5804 5806 5807 5809
5845 5845 5844 5844 5843 5842 5842 5842 5841 5839 5838 5836 5833 5831 5829 5828 5827 5825 5823 5821 5819 5817 5815 5812 5808 5805 5802 5800 5798 5796 5795 5794 5792 5791 5790 5789 5789 5789 5790 5791 5791 5792 5793 5794 5794 5795 5796 5798 5800
5846 5845 5845 5844 5843 5842 5840 5840 5839 5837 5835 5833 5831 5829 5828 5826 5824 5822 5819 5816 5814 5811 5809 5806 5802 5799 5795 5793 5790 5788 5786 5785 5783 5782 5781 5780 5779 5779 5780 5781 5781 5781 5782 5783 5783 5784 5785 5788 5791
5845 5845 5844 5843 5842 5841 5839 5838 5836 5835 5832 5831 5829 5828 5825 5823 5819 5816 5813 5810 5807 5804 5801 5797 5793 5790 5787 5784 5781 5778 5776 5774 5772 5771 5771 5770 5770 5770 5770 5770 5770 5771 5771 5771 5773 5774 5776 5779 5781
5845 5845 5844 5843 5842 5840 5839 5837 5834 5831 5829 5827 5825 5822 5820 5817 5814 5810 5807 5803 5799 5795 5791 5788 5784 5780 5776 5773 5770 5768 5765 5763 5761 5759 5758 5758 5758 5757 5758 5759 5760 5761 5761 5761 5763 5765 5767 5769 5772
5844 5844 5843 5842 5841 5839 5837 5835 5832 5830 5829 5827 5824 5821 5817 5814 5811 5807 5803 5798 5793 5788 5783 5779 5774 5770 5765 5761 5758 5755 5753 5750 5748 5747 5746 5745 5745 5744 5745 5745 5746 5747 5749 5751 5752 5755 5757 5759 5761
5844 5843 5842 5841 5840 5838 5836 5834 5832 5831 5829 5826 5822 5818 5814 5810 5805 5800 5794 5789 5784 5778 5773 5768 5763 5758 5753 5749 5745 5741 5738 5736 5734 5732 5731 5730 5730 5730 5731 5732 5733 5733 5735 5738 5740 5743 5746 5748 5750
5845 5843 5842 5840 5840 5838 5837 5835 5832 5830 5827 5822 5818 5814 5809 5804 5799 5792 5786 5779 5773 5766 5759 5754 5748 5743 5738 5734 5730 5726 5722 5720 5717 5716 5715 5714 5713 5714 5715 5716 5718 5720 5721 5724 5727 5729 5732 5734 5737
5845 5844 5843 5843 5842 5839 5838 5833 5830 5827 5823 5819 5814 5807 5801 5794 5787 5781 5774 5767 5759 5752 5745 5739 5733 5728 5724 5719 5715 5711 5706 5704 5701 5698 5697 5696 5696 5696 5697 5699 5701 5704 5707 5709 5711 5714 5717 5720 5723
5846 5845 5843 5842 5839 5836 5833 5829 5826 5822 5818 5813 5808 5801 5794 5786 5779 5770 5762 5754 5747 5739 5733 5725 5717 5711 5707 5702 5698 5694 5690 5686 5683 5680 5678 5677 5678 5678 5679 5680 5682 5686 5689 5693 5695 5699 5701 5705 5708
5847 5845 5843 5840 5837 5833 5829 5824 5821 5817 5812 5806 5799 5791 5783 5775 5766 5757 5748 5741 5732 5723 5715 5708 5700 5693 5687 5682 5678 5673 5669 5666 5663 5660 5659 5659 5658 5658 5660 5662 5664 5666 5670 5674 5677 5680 5684 5688 5692
5847 5844 5841 5838 5834 5831 5826 5821 5817 5812 5806 5799 5791 5782 5773 5764 5754 5744 5735 5725 5713 5703 5694 5685 5678 5668 5660 5655 5650 5647 5645 5643 5641 5639 5637 5636 5637 5637 5639 5642 5645 5647 5651 5655 5659 5661 5665 5671 5674
5846 5843 5839 5836 5832 5828 5823 5819 5814 5808 5801 5792 5781 5771 5762 5752 5741 5729 5717 5706 5694 5682 5670 5659 5648 5639 5630 5624 5619 5615 5613 5612 5612 5612 5612 5611 5612 5613 5616 5619 5623 5626 5629 5634 5639 5642 5646 5652 5657
5842 5839 5836 5833 5830 5825 5819 5813 5808 5802 5791 5780 5769 5758 5746 5735 5724 5712 5700 5687 5672 5657 5644 5630 5617 5607 5599 5592 5587 5586 5583 5582 5584 5585 5586 5586 5587 5588 5590 5594 5600 5604 5608 5613 5617 5621 5625 5631 5639
5839 5836 5832 5828 5824 5820 5814 5806 5801 5793 5781 5770 5758 5745 5733 5720 5705 5691 5676 5661 5646 5631 5619 5607 5596 5585 5575 5567 5559 5553 5548 5548 5550 5554 5559 5560 5560 5563 5567 5571 5576 5581 5586 5592 5596 5600 5604 5610 5618
5837 5834 5830 5824 5819 5814 5807 5799 5794 5783 5770 5757 5744 5730 5716 5701 5687 5670 5652 5637 5623 5612 5601 5592 5583 5574 5563 5552 5541 5533 5524 5518 5516 5520 5527 5533 5537 5540 5543 5547 5551 5556 5561 5567 5571 5576 5583 5589 5595
5835 5832 5826 5820 5814 5808 5800 5792 5783 5771 5757 5743 5729 5714 5699 5684 5667 5651 5635 5621 5611 5601 5591 5581 5572 5564 5554 5542 5530 5519 5509 5503 5500 5500 5504 5510 5515 5518 5520 5522 5526 5531 5535 5540 5545 5551 5558 5565 5571
5833 5829 5822 5815 5808 5802 5793 5782 5772 5758 5744 5730 5716 5701 5685 5667 5652 5638 5625 5613 5604 5595 5585 5574 5563 5553 5543 5533 5523 5513 5504 5496 5492 5491 5492 5495 5498 5501 5503 5505 5507 5510 5512 5515 5520 5525 5532 5539 5546
5828 5823 5816 5809 5802 5795 5785 5774 5762 5748 5733 5718 5704 5688 5670 5654 5641 5628 5615 5605 5597 5588 5576 5565 5554 5544 5534 5525 5516 5508 5499 5493 5488 5485 5484 5485 5487 5489 5491 5493 5494 5496 5497 5499 5501 5505 5509 5513 5519
5822 5816 5809 5804 5795 5787 5777 5766 5751 5737 5722 5706 5691 5674 5658 5644 5632 5618 5606 5596 5588 5580 5569 5558 5548 5537 5527 5518 5510 5503 5496 5489 5484 5480 5478 5478 5478 5479 5480 5481 5483 5484 5485 5485 5486 5487 5489 5491 5495
5818 5811 5804 5794 5785 5776 5766 5755 5740 5725 5711 5694 5678 5663 5649 5636 5623 5610 5598 5588 5580 5572 5561 5550 5540 5531 5522 5513 5505 5498 5492 5486 5481 5476 5473 5472 5471 5471 5471 5471 5471 5471 5472 5472 5471 5470 5470 5470 5473
5814 5806 5797 5788 5777 5764 5751 5746 5729 5713 5698 5682 5667 5652 5639 5627 5615 5603 5592 5581 5572 5562 5552 5542 5532 5523 5514 5506 5498 5491 5486 5480 5475 5471 5467 5465 5463 5462 5461 5460 5459 5458 5458 5457 5456 5455 5454 5452 5452
5809 5801 5792 5782 5769 5757 5742 5734 5716 5701 5686 5670 5654 5640 5629 5619 5608 5596 5585 5573 5562 5552 5542 5532 5522 5512 5503 5495 5488 5481 5476 5471 5466 5462 5458 5455 5453 5451 5449 5447 5446 5444 5443 5443 5441 5440 5439 5434 5432